WFO RAH Logo

WFO RAH Text Data
RWRRAH
NORTH CAROLINA WEATHER ROUNDUP
NATIONAL WEATHER SERVICE RALEIGH NC
1200 AM EST THU JAN 17 2008

NOTE: "FAIR" INDICATES FEW OR NO CLOUDS BELOW 12,000 FEET WITH NO
SIGNIFICANT WEATHER AND/OR OBSTRUCTIONS TO VISIBILITY.

NCZ001-053-055-056-065-067-170600-
WESTERN NORTH CAROLINA
  
CITY           SKY/WX    TMP DP  RH WIND       PRES   REMARKS
ASHEVILLE      LGT SNOW  28  27  93 CALM      30.20F FOG              
JEFFERSON      CLOUDY    34  12  40 S5        30.18F WCI  30          
MORGANTON      LGT RAIN  36  21  55 CALM      30.32F                  
HICKORY        LGT SNOW  34  25  69 S3        30.28F                  
RUTHERFORDTON  LGT SNOW  36  32  87 CALM      30.29S VSB 1            
MOUNT AIRY     CLOUDY    36  10  35 CALM      30.28F                  
$$
 
NCZ021-022-025-041-071-084-088-170600-
CENTRAL NORTH CAROLINA
  
CITY           SKY/WX    TMP DP  RH WIND       PRES   REMARKS
CHARLOTTE      LGT SNOW  34  29  82 SE9       30.30F WCI  27          
GREENSBORO     CLOUDY    36  18  48 E3        30.31F                  
WINSTON-SALEM  CLOUDY    36  16  44 CALM      30.31F                  
RALEIGH-DURHAM CLOUDY    39  20  46 SE6       30.34F WCI  35          
FORT BRAGG     CLOUDY    40  21  46 E3        30.34F                  
FAYETTEVILLE     N/A    N/A N/A N/A MISG      30.34F                  
$$
 
NCZ011-015-027-028-043-044-047-080-103-170600-
NORTHEASTERN NORTH CAROLINA
  
CITY           SKY/WX    TMP DP  RH WIND       PRES   REMARKS
ROANOKE RAPIDS CLOUDY    36  25  64 CALM      30.37F                  
ROCKY MT-WILSO CLOUDY    37  21  52 E3        30.38S                  
GREENVILLE     CLOUDY    37  25  60 CALM      30.37F                  
WASHINGTON     CLOUDY    39  27  60 NE5       30.38S                  
ELIZABETH CITY CLOUDY    34  28  79 CALM      30.40R                  
MANTEO         CLOUDY    41  32  70 CALM      30.40R                  
CAPE HATTERAS  CLOUDY    41  31  67 N6        30.38R                  
$$
 
NCZ078-087-090-091-093-098-101-170600-
SOUTHEASTERN NORTH CAROLINA
  
CITY           SKY/WX    TMP DP  RH WIND       PRES   REMARKS
LUMBERTON      LGT RAIN  37  30  75 S6        30.36S WCI  32          
KINSTON        CLOUDY    37  27  65 CALM      30.38S                  
KENANSVILLE    CLOUDY    37  30  75 CALM      30.37R                  
NEW BERN       CLOUDY    39  28  64 E3        30.38F                  
CHERRY POINT   CLOUDY    38  29  70 E3        30.37F                  
BEAUFORT       CLOUDY    41  31  67 NE5       30.37F                  
JACKSONVILLE   CLOUDY    41  27  57 E6        30.37F                  
WILMINGTON     LGT RAIN  39  32  76 NE7       30.33F WCI  34          
$$